Regional Weather Roundup
Issued by NWS Raleigh/Durham, NC

Home | Current Version | Previous Version | Text Only | Print | Product List | Glossary On
Versions: 1 2 3 4 5 6 7 8 9 10 11 12 13 14 15 16 17 18 19 20 21 22 23 24 25 26 27 28 29 30 31 32 33 34 35 36 37 38 39 40 41 42 43 44 45 46 47 48 49 50
000
ASUS42 KRAH 062010
RWRRAH
NORTH CAROLINA WEATHER ROUNDUP
NATIONAL WEATHER SERVICE RALEIGH NC
300 PM EST FRI MAR 06 2015

NOTE: "FAIR" INDICATES FEW OR NO CLOUDS BELOW 12,000 FEET WITH NO
SIGNIFICANT WEATHER AND/OR OBSTRUCTIONS TO VISIBILITY.

NCZ001-053-055-056-065-067-062100-
WESTERN NORTH CAROLINA

CITY           SKY/WX    TMP DP  RH WIND       PRES   REMARKS
ASHEVILLE      SUNNY     45  15  30 N8        30.30F
JEFFERSON      SUNNY     33   8  35 SE6       30.24F WCI  27
MORGANTON      SUNNY     40   8  26 SW3       30.39F
HICKORY        SUNNY     38   8  29 VRB3      30.36F
RUTHERFORDTON  SUNNY     42  13  31 S9        30.36F
MOUNT AIRY     SUNNY     37  10  33 NE3       30.38F
BOONE          SUNNY     37  12  36 S5        30.25S WCI  33
$$

NCZ021-022-025-041-071-084-088-062100-
CENTRAL NORTH CAROLINA

CITY           SKY/WX    TMP DP  RH WIND       PRES   REMARKS
CHARLOTTE      MOSUNNY   41  14  33 E3        30.39F
GREENSBORO     SUNNY     34  18  52 VRB5      30.39F WCI  30
WINSTON-SALEM  SUNNY     34  13  41 VRB3      30.40F
RALEIGH-DURHAM MOSUNNY   36  10  34 VRB5G16   30.43F WCI  32
FORT BRAGG     SUNNY     40   9  27 VRB5      30.40F
FAYETTEVILLE   SUNNY     40  13  33 VRB6      30.41F
BURLINGTON     SUNNY     36  12  37 W5        30.41F WCI  32
LAURINBURG     SUNNY     43  15  32 N8        30.41F
$$

NCZ011-015-027-028-043-044-047-080-103-062100-
NORTHEASTERN NORTH CAROLINA

CITY           SKY/WX    TMP DP  RH WIND       PRES   REMARKS
ROCKY MT-WILSO SUNNY     36  15  42 NE7G16    30.44F WCI  30
GREENVILLE     SUNNY     36  19  51 NE6       30.43F WCI  31
WASHINGTON     SUNNY     36  22  56 NE7       30.42F WCI  31
ELIZABETH CITY SUNNY     33  21  61 N13       30.44F WCI  24
MANTEO         CLOUDY    28  22  78 N18G25    30.43S WCI  16
CAPE HATTERAS  CLOUDY    31  26  82 N14G28    30.38S WCI  21
$$

NCZ078-087-090-091-093-098-101-062100-
SOUTHEASTERN NORTH CAROLINA

CITY           SKY/WX    TMP DP  RH WIND       PRES   REMARKS
LUMBERTON      SUNNY     43  18  36 N10       30.40F
GOLDSBORO      SUNNY     36  22  55 N10       30.40F WCI  29
KINSTON        SUNNY     37  19  48 N9        30.43F WCI  31
KENANSVILLE    SUNNY     38  19  45 N9        30.42S WCI  32
NEW BERN       PTSUNNY   41  22  46 N14       30.40F
CHERRY POINT   CLOUDY    38  20  48 N12       30.40F WCI  30
BEAUFORT       CLOUDY    36  22  56 N14G24    30.38F WCI  27
JACKSONVILLE   PTSUNNY   41  23  48 N13       30.38F
WILMINGTON     CLOUDY    43  25  49 NW13      30.37F
$$



USA.gov is the U.S. government's official web portal to all federal, state and local government web resources and services.